AAL2045 TXKF-KCLT

Flight info

Callsign AAL2045
Flight time N/A
Altitude 36000
Route SOMRR1 ENAPI M325 OXANA AR8 OHPEA DCT TYI DCT RDU DCT SDAIL CHSLY6
Aircraft A319/M-SDE3FGHIRWY/LB1

Departure

Time N/A
Airport L.F. Wade International Airport (TXKF)

Arrival

Time 2026-05-03 21:42
Airport Charlotte Douglas International Airport (KCLT)
Time Latitude Longitude Altitude Speed Heading
2026-05-03 20:15 34.17247 -73.02095 36120 ft 333 kts 277°
2026-05-03 20:15 34.18638 -73.07431 36117 ft 332 kts 277°
2026-05-03 20:16 34.20018 -73.12751 36117 ft 332 kts 277°
2026-05-03 20:16 34.21398 -73.18086 36121 ft 332 kts 277°
2026-05-03 20:17 34.22775 -73.23377 36112 ft 332 kts 277°
2026-05-03 20:17 34.24172 -73.28739 36112 ft 332 kts 277°
2026-05-03 20:18 34.25547 -73.34040 36111 ft 332 kts 277°
2026-05-03 20:18 34.26924 -73.39376 36113 ft 332 kts 277°
2026-05-03 20:19 34.28301 -73.44712 36114 ft 332 kts 277°
2026-05-03 20:19 34.29675 -73.50056 36119 ft 333 kts 277°
2026-05-03 20:20 34.31043 -73.55397 36119 ft 333 kts 277°
2026-05-03 20:20 34.32412 -73.60749 36118 ft 333 kts 277°
2026-05-03 20:21 34.33778 -73.66102 36125 ft 333 kts 277°
2026-05-03 20:21 34.35150 -73.71503 36123 ft 333 kts 277°
2026-05-03 20:22 34.37044 -73.76722 36118 ft 358 kts 293°
2026-05-03 20:22 34.38758 -73.79012 36126 ft 371 kts 300°
2026-05-03 20:22 34.40575 -73.81237 36116 ft 372 kts 300°
2026-05-03 20:23 34.44215 -73.85696 36122 ft 372 kts 300°
2026-05-03 20:23 34.47635 -73.89914 36126 ft 372 kts 299°
2026-05-03 20:24 34.51260 -73.94400 36128 ft 372 kts 299°
2026-05-03 20:24 34.54885 -73.98894 36133 ft 373 kts 300°
2026-05-03 20:25 34.58513 -74.03399 36135 ft 373 kts 300°
2026-05-03 20:25 34.62144 -74.07906 36137 ft 373 kts 300°
2026-05-03 20:26 34.65777 -74.12423 36140 ft 374 kts 300°
2026-05-03 20:26 34.69407 -74.16947 36148 ft 374 kts 300°
2026-05-03 20:27 34.73037 -74.21479 36147 ft 374 kts 300°
2026-05-03 20:27 34.76672 -74.26017 36145 ft 375 kts 300°
2026-05-03 20:28 34.80308 -74.30557 36146 ft 375 kts 300°
2026-05-03 20:28 34.83938 -74.35098 36150 ft 375 kts 300°
2026-05-03 20:29 34.87574 -74.39647 36149 ft 375 kts 300°
2026-05-03 20:29 34.91200 -74.44205 36149 ft 375 kts 300°
2026-05-03 20:30 34.94832 -74.48766 36141 ft 375 kts 300°
2026-05-03 20:30 34.98455 -74.53331 36153 ft 374 kts 300°
2026-05-03 20:31 35.02074 -74.57900 36148 ft 374 kts 300°
2026-05-03 20:31 35.05114 -74.61734 36154 ft 374 kts 300°
2026-05-03 20:32 35.08732 -74.66305 36158 ft 374 kts 301°
2026-05-03 20:32 35.12345 -74.70872 36160 ft 374 kts 301°
2026-05-03 20:33 35.15960 -74.75450 36159 ft 374 kts 301°
2026-05-03 20:33 35.19567 -74.80021 36156 ft 374 kts 301°
2026-05-03 20:34 35.23172 -74.84602 36155 ft 374 kts 301°
2026-05-03 20:34 35.26773 -74.89188 36155 ft 374 kts 301°
2026-05-03 20:35 35.30374 -74.93778 36154 ft 374 kts 301°
2026-05-03 20:35 35.33974 -74.98373 36144 ft 374 kts 301°
2026-05-03 20:36 35.37577 -75.02976 36145 ft 374 kts 301°
2026-05-03 20:36 35.41179 -75.07580 36144 ft 374 kts 301°
2026-05-03 20:37 35.44785 -75.12194 36147 ft 375 kts 301°
2026-05-03 20:37 35.48391 -75.16817 36144 ft 375 kts 301°
2026-05-03 20:38 35.52004 -75.21456 36141 ft 376 kts 301°
2026-05-03 20:38 35.55612 -75.26097 36145 ft 376 kts 302°
2026-05-03 20:39 35.59224 -75.30752 36144 ft 377 kts 302°
2026-05-03 20:39 35.62842 -75.35417 36145 ft 377 kts 302°
2026-05-03 20:40 35.66171 -75.39726 36141 ft 377 kts 302°
2026-05-03 20:40 35.69690 -75.44280 36143 ft 378 kts 302°
2026-05-03 20:41 35.73304 -75.48954 36139 ft 378 kts 302°
2026-05-03 20:41 35.76923 -75.53650 36139 ft 378 kts 302°
2026-05-03 20:42 35.80540 -75.58348 36137 ft 378 kts 302°
2026-05-03 20:42 35.84039 -75.63142 36134 ft 368 kts 294°
2026-05-03 20:42 35.85247 -75.65892 36131 ft 356 kts 284°
2026-05-03 20:43 35.85930 -75.68785 36127 ft 348 kts 275°
2026-05-03 20:43 35.86362 -75.74684 36118 ft 345 kts 271°
2026-05-03 20:44 35.86756 -75.80590 36110 ft 346 kts 271°
2026-05-03 20:44 35.87151 -75.86504 36106 ft 346 kts 271°
2026-05-03 20:45 35.87539 -75.92429 36108 ft 347 kts 271°
2026-05-03 20:45 35.87920 -75.98367 36103 ft 347 kts 271°
2026-05-03 20:46 35.88294 -76.04298 36104 ft 347 kts 271°
2026-05-03 20:46 35.88671 -76.10245 36101 ft 348 kts 271°
2026-05-03 20:47 35.89047 -76.16228 36097 ft 348 kts 271°
2026-05-03 20:47 35.89420 -76.22175 36098 ft 348 kts 271°
2026-05-03 20:48 35.89789 -76.28172 36106 ft 348 kts 271°
2026-05-03 20:48 35.90155 -76.34169 36095 ft 349 kts 271°
2026-05-03 20:49 35.90513 -76.40136 36094 ft 349 kts 271°
2026-05-03 20:49 35.90871 -76.46112 36093 ft 349 kts 271°
2026-05-03 20:50 35.91230 -76.52118 36097 ft 349 kts 271°
2026-05-03 20:50 35.91583 -76.58089 36088 ft 349 kts 271°
2026-05-03 20:51 35.91925 -76.64027 36088 ft 349 kts 271°
2026-05-03 20:51 35.92274 -76.70011 36089 ft 350 kts 271°
2026-05-03 20:52 35.92625 -76.76040 36104 ft 350 kts 271°
2026-05-03 20:52 35.92971 -76.82037 36096 ft 350 kts 271°
2026-05-03 20:53 35.93312 -76.88031 36098 ft 351 kts 271°
2026-05-03 20:53 35.93653 -76.94030 36090 ft 351 kts 271°
2026-05-03 20:54 35.93980 -77.00044 36094 ft 351 kts 271°
2026-05-03 20:54 35.94468 -77.09067 36092 ft 352 kts 271°
2026-05-03 20:55 35.94800 -77.15097 36095 ft 352 kts 271°
2026-05-03 20:55 35.95129 -77.21126 36085 ft 352 kts 271°
2026-05-03 20:56 35.95450 -77.27152 36083 ft 352 kts 271°
2026-05-03 20:56 35.95713 -77.32172 36089 ft 352 kts 271°
2026-05-03 20:57 35.96032 -77.38251 36084 ft 353 kts 271°
2026-05-03 20:57 35.96344 -77.44290 36081 ft 353 kts 271°
2026-05-03 20:58 35.96654 -77.50338 36081 ft 353 kts 271°
2026-05-03 20:58 35.96961 -77.56393 36080 ft 354 kts 271°
2026-05-03 20:59 35.97268 -77.62456 36082 ft 354 kts 271°
2026-05-03 20:59 35.97574 -77.68575 36084 ft 354 kts 271°
2026-05-03 21:00 35.97386 -77.73602 36089 ft 353 kts 263°
2026-05-03 21:00 35.96727 -77.80652 36092 ft 354 kts 263°
2026-05-03 21:01 35.96153 -77.86677 36087 ft 354 kts 263°
2026-05-03 21:01 35.95581 -77.92708 36083 ft 354 kts 263°
2026-05-03 21:02 35.95011 -77.98803 36083 ft 355 kts 263°
2026-05-03 21:02 35.94448 -78.04815 36087 ft 355 kts 263°
2026-05-03 21:03 35.93875 -78.10911 36092 ft 355 kts 263°
2026-05-03 21:03 35.93296 -78.16971 36108 ft 356 kts 263°
2026-05-03 21:04 35.92713 -78.23035 36092 ft 356 kts 263°
2026-05-03 21:04 35.92122 -78.29100 36098 ft 356 kts 263°
2026-05-03 21:05 35.91532 -78.35177 36107 ft 357 kts 263°
2026-05-03 21:05 35.90944 -78.41255 36108 ft 357 kts 263°
2026-05-03 21:06 35.90344 -78.47342 36109 ft 358 kts 263°
2026-05-03 21:06 35.89738 -78.53436 36110 ft 358 kts 263°
2026-05-03 21:07 35.89130 -78.59536 36096 ft 359 kts 263°
2026-05-03 21:07 35.88521 -78.65643 36098 ft 359 kts 263°
2026-05-03 21:08 35.87899 -78.71801 36099 ft 359 kts 263°
2026-05-03 21:08 35.87335 -78.77920 36095 ft 360 kts 267°
2026-05-03 21:09 35.87758 -78.84130 36102 ft 362 kts 274°
2026-05-03 21:09 35.88304 -78.90308 36102 ft 362 kts 273°
2026-05-03 21:10 35.88840 -78.96492 36105 ft 363 kts 273°
2026-05-03 21:10 35.89371 -79.02672 36109 ft 363 kts 273°
2026-05-03 21:11 35.89908 -79.08875 36111 ft 363 kts 273°
2026-05-03 21:11 35.90177 -79.11975 35912 ft 365 kts 274°
2026-05-03 21:11 35.90447 -79.15121 35037 ft 371 kts 274°
2026-05-03 21:12 35.90720 -79.18329 34326 ft 372 kts 274°
2026-05-03 21:12 35.90989 -79.21510 33463 ft 374 kts 274°
2026-05-03 21:12 35.91259 -79.24706 32586 ft 376 kts 274°
2026-05-03 21:12 35.91529 -79.27916 31698 ft 378 kts 275°
2026-05-03 21:13 35.91797 -79.31129 31209 ft 372 kts 275°
2026-05-03 21:13 35.92059 -79.34279 30700 ft 366 kts 275°
2026-05-03 21:13 35.92316 -79.37372 30182 ft 361 kts 275°
2026-05-03 21:13 35.92570 -79.40440 29619 ft 356 kts 275°
2026-05-03 21:14 35.92820 -79.43453 29123 ft 350 kts 275°
2026-05-03 21:14 35.93065 -79.46415 28638 ft 345 kts 275°
2026-05-03 21:14 35.93307 -79.49341 28159 ft 340 kts 275°
2026-05-03 21:14 35.93546 -79.52231 27688 ft 336 kts 275°
2026-05-03 21:15 35.93784 -79.55122 27218 ft 332 kts 275°
2026-05-03 21:15 35.94015 -79.57944 26760 ft 329 kts 275°
2026-05-03 21:15 35.94244 -79.60749 26306 ft 327 kts 275°
2026-05-03 21:15 35.94469 -79.63535 25855 ft 325 kts 275°
2026-05-03 21:16 35.94692 -79.66307 25418 ft 324 kts 275°
2026-05-03 21:16 35.94915 -79.69068 24985 ft 322 kts 275°
2026-05-03 21:16 35.95137 -79.71813 24541 ft 320 kts 275°
2026-05-03 21:16 35.95356 -79.74542 24132 ft 319 kts 276°
2026-05-03 21:17 35.95575 -79.77261 23724 ft 317 kts 276°
2026-05-03 21:17 35.95720 -79.79084 23416 ft 315 kts 275°
2026-05-03 21:17 35.95649 -79.82674 22948 ft 317 kts 263°
2026-05-03 21:17 35.95177 -79.85429 22875 ft 335 kts 260°
2026-05-03 21:18 35.94665 -79.88291 22614 ft 339 kts 260°
2026-05-03 21:18 35.94151 -79.91176 22339 ft 340 kts 260°
2026-05-03 21:18 35.93646 -79.94027 22085 ft 339 kts 260°
2026-05-03 21:18 35.93141 -79.96867 21813 ft 339 kts 260°
2026-05-03 21:19 35.92633 -79.99701 21554 ft 339 kts 260°
2026-05-03 21:19 35.92122 -80.02535 21298 ft 338 kts 260°
2026-05-03 21:19 35.91612 -80.05363 21044 ft 338 kts 260°
2026-05-03 21:19 35.91099 -80.08194 20792 ft 337 kts 260°
2026-05-03 21:20 35.90589 -80.11017 20547 ft 337 kts 260°
2026-05-03 21:20 35.90081 -80.13835 20300 ft 337 kts 260°
2026-05-03 21:20 35.89572 -80.16653 20121 ft 337 kts 260°
2026-05-03 21:20 35.89236 -80.18510 20095 ft 334 kts 260°
2026-05-03 21:21 35.88662 -80.21261 20108 ft 329 kts 255°
2026-05-03 21:21 35.87955 -80.23933 20108 ft 327 kts 255°
2026-05-03 21:21 35.87252 -80.26596 20111 ft 327 kts 255°
2026-05-03 21:21 35.86549 -80.29261 20107 ft 327 kts 255°
2026-05-03 21:22 35.85840 -80.31959 20109 ft 326 kts 255°
2026-05-03 21:22 35.85143 -80.34616 20107 ft 326 kts 255°
2026-05-03 21:22 35.84443 -80.37284 20108 ft 326 kts 255°
2026-05-03 21:22 35.83648 -80.39838 20106 ft 314 kts 246°
2026-05-03 21:23 35.82429 -80.42052 20106 ft 313 kts 234°
2026-05-03 21:23 35.80797 -80.43854 20107 ft 319 kts 220°
2026-05-03 21:23 35.78920 -80.45340 20108 ft 321 kts 219°
2026-05-03 21:23 35.77039 -80.46823 20099 ft 321 kts 219°
2026-05-03 21:24 35.75165 -80.48306 20100 ft 321 kts 219°
2026-05-03 21:24 35.73292 -80.49788 20100 ft 320 kts 219°
2026-05-03 21:24 35.71417 -80.51270 19896 ft 320 kts 219°
2026-05-03 21:24 35.69536 -80.52757 19413 ft 322 kts 219°
2026-05-03 21:25 35.67637 -80.54248 18999 ft 322 kts 218°
2026-05-03 21:25 35.65718 -80.55719 18614 ft 322 kts 217°
2026-05-03 21:25 35.63809 -80.57159 18221 ft 321 kts 217°
2026-05-03 21:25 35.61909 -80.58586 17768 ft 319 kts 217°
2026-05-03 21:26 35.60021 -80.60006 17255 ft 317 kts 217°
2026-05-03 21:26 35.58159 -80.61411 16771 ft 315 kts 217°
2026-05-03 21:26 35.56283 -80.62830 16297 ft 313 kts 217°
2026-05-03 21:26 35.54431 -80.64231 15783 ft 311 kts 217°
2026-05-03 21:27 35.52571 -80.65633 15271 ft 309 kts 217°
2026-05-03 21:27 35.50747 -80.66997 14777 ft 307 kts 216°
2026-05-03 21:27 35.48901 -80.68375 14280 ft 306 kts 216°
2026-05-03 21:27 35.47085 -80.69725 13792 ft 304 kts 216°
2026-05-03 21:28 35.45279 -80.71063 13261 ft 302 kts 216°
2026-05-03 21:28 35.43490 -80.72389 12729 ft 300 kts 216°
2026-05-03 21:28 35.41709 -80.73712 12220 ft 298 kts 216°
2026-05-03 21:28 35.39935 -80.75034 11808 ft 298 kts 216°
2026-05-03 21:29 35.38171 -80.76347 11555 ft 293 kts 216°
2026-05-03 21:29 35.36461 -80.77613 11413 ft 280 kts 216°
2026-05-03 21:29 35.34841 -80.78807 11286 ft 264 kts 216°
2026-05-03 21:29 35.33276 -80.79966 10723 ft 267 kts 217°
2026-05-03 21:30 35.31691 -80.81145 10339 ft 263 kts 216°
2026-05-03 21:30 35.30162 -80.82276 10177 ft 251 kts 217°
2026-05-03 21:30 35.28635 -80.83256 10061 ft 249 kts 205°
2026-05-03 21:30 35.26920 -80.83626 10008 ft 254 kts 185°
2026-05-03 21:31 35.25120 -80.83488 10011 ft 255 kts 180°
2026-05-03 21:31 35.23360 -80.83337 9761 ft 254 kts 181°
2026-05-03 21:31 35.21559 -80.83186 9475 ft 252 kts 180°
2026-05-03 21:31 35.19815 -80.83040 9225 ft 250 kts 180°
2026-05-03 21:32 35.18082 -80.82895 8951 ft 248 kts 180°
2026-05-03 21:32 35.16362 -80.82753 8712 ft 246 kts 180°
2026-05-03 21:32 35.14655 -80.82612 8470 ft 245 kts 180°
2026-05-03 21:32 35.12964 -80.82473 8214 ft 243 kts 180°
2026-05-03 21:33 35.11281 -80.82332 7934 ft 242 kts 179°
2026-05-03 21:33 35.09608 -80.82191 7698 ft 240 kts 179°
2026-05-03 21:33 35.07944 -80.82051 7400 ft 238 kts 179°
2026-05-03 21:33 35.06297 -80.81889 7080 ft 237 kts 178°
2026-05-03 21:34 35.04637 -80.81707 6785 ft 235 kts 178°
2026-05-03 21:34 35.03032 -80.81526 6488 ft 234 kts 178°
2026-05-03 21:34 35.01396 -80.81334 6169 ft 233 kts 176°
2026-05-03 21:34 34.99793 -80.81113 5823 ft 231 kts 176°
2026-05-03 21:35 34.98231 -80.81144 5481 ft 225 kts 199°
2026-05-03 21:35 34.96944 -80.82147 5146 ft 217 kts 232°
2026-05-03 21:35 34.96350 -80.83798 4798 ft 216 kts 258°
2026-05-03 21:35 34.96096 -80.85598 4516 ft 215 kts 262°
2026-05-03 21:36 34.95958 -80.87397 4185 ft 213 kts 268°
2026-05-03 21:36 34.96288 -80.89117 4021 ft 213 kts 301°
2026-05-03 21:36 34.97339 -80.90403 4029 ft 210 kts 321°
2026-05-03 21:36 34.98561 -80.91273 4015 ft 198 kts 336°
2026-05-03 21:37 34.99884 -80.91624 4033 ft 193 kts 351°
2026-05-03 21:37 35.01191 -80.91779 4029 ft 189 kts 353°
2026-05-03 21:37 35.02534 -80.91905 4009 ft 191 kts 354°
2026-05-03 21:37 35.03863 -80.92020 3880 ft 192 kts 353°
2026-05-03 21:38 35.05194 -80.92134 3673 ft 194 kts 354°
2026-05-03 21:38 35.06558 -80.92252 3427 ft 195 kts 354°
2026-05-03 21:38 35.07907 -80.92367 3154 ft 193 kts 353°
2026-05-03 21:38 35.09239 -80.92480 2906 ft 190 kts 352°
2026-05-03 21:39 35.10542 -80.92592 2636 ft 183 kts 352°
2026-05-03 21:39 35.11784 -80.92697 2415 ft 169 kts 352°
2026-05-03 21:39 35.12918 -80.92793 2181 ft 155 kts 353°
2026-05-03 21:39 35.13950 -80.92882 1991 ft 144 kts 353°
2026-05-03 21:40 35.14923 -80.92966 1798 ft 137 kts 353°
2026-05-03 21:40 35.15567 -80.93022 1674 ft 136 kts 352°
2026-05-03 21:40 35.16502 -80.93103 1481 ft 135 kts 352°
2026-05-03 21:40 35.17434 -80.93187 1301 ft 135 kts 352°
2026-05-03 21:41 35.18367 -80.93254 1107 ft 132 kts 352°
2026-05-03 21:41 35.19294 -80.93331 936 ft 135 kts 351°
2026-05-03 21:41 35.20223 -80.93423 774 ft 133 kts 352°
2026-05-03 21:41 35.21063 -80.93500 734 ft 100 kts 356°
2026-05-03 21:42 35.21579 -80.93540 735 ft 49 kts 356°
2026-05-03 21:42 35.21863 -80.93566 736 ft 32 kts 355°
2026-05-03 21:42 35.22018 -80.93590 736 ft 18 kts 338°
2026-05-03 21:42 35.22104 -80.93655 735 ft 14 kts 327°
2026-05-03 21:43 35.22170 -80.93710 734 ft 6 kts 323°
2026-05-03 21:43 35.22192 -80.93767 733 ft 9 kts 272°
2026-05-03 21:43 35.22148 -80.93808 733 ft 10 kts 178°
2026-05-03 21:43 35.22070 -80.93802 733 ft 12 kts 175°
2026-05-03 21:44 35.21986 -80.93823 732 ft 13 kts 228°
2026-05-03 21:44 35.21920 -80.93913 732 ft 15 kts 217°
2026-05-03 21:44 35.21844 -80.93956 732 ft 8 kts 226°
2026-05-03 21:44 35.21809 -80.94006 732 ft 8 kts 230°
2026-05-03 21:45 35.21778 -80.94058 732 ft 7 kts 248°
2026-05-03 21:45 35.21783 -80.94107 732 ft 5 kts 287°
2026-05-03 21:45 35.21791 -80.94148 732 ft 1 kts 284°
2026-05-03 21:45 35.21793 -80.94158 732 ft 0 kts 284°